Soldotna, AK

6:46 PM AKDT on April 27, 2017 (GMT -0800)
Soldotna

Weather History for PASX - April, 2014

Change the Weather History Date:

Saturday, April 19, 2014

  Actual Average Record
Temperature  
Mean Temperature 40 °F -  
Max Temperature 51 °F 43 °F 57 °F (1965)
Min Temperature 28 °F 26 °F 1 °F (1972)
Degree Days  
Heating Degree Days 26    
Moisture  
Dew Point 26 °F    
Average Humidity 59    
Maximum Humidity 86    
Minimum Humidity 37    
Precipitation  
Precipitation 0.00 in - - ()
Sea Level Pressure  
Sea Level Pressure 29.51 in    
Wind  
Wind Speed 4 mph (NNE)    
Max Wind Speed 15 mph    
Max Gust Speed 21 mph    
Visibility 10 miles    
Events      
Averages and records for this station are not official NWS values.
T = Trace of Precipitation, MM = Missing Value Source: NWS Daily Summary

Daily Weather History Graph

Daily Weather History Graph

Search for Another Location

Airport or City:

Trip Planner

Search our weather history database for the weather conditions in past years. The results will help you decide how hot, cold, wet, or windy it might be!

Date:

Astronomy

Apr. 19, 2014 Rise Set
Actual Time 6:33 AM AKDT 9:34 PM AKDT
Civil Twilight 5:44 AM AKDT 10:23 PM AKDT
Nautical Twilight 4:37 AM AKDT 11:32 PM AKDT
Astronomical Twilight 2:35 AM AKDT 1:30 AM AKDT
Moon 2:07 AM AKDT (4/19) 9:22 AM AKDT (4/19)
Length of Visible Light 16h 39m
Length of Day
15h 01m
Waning Gibbous, 77% of the Moon is Illuminated
Apr 19
Waning Gibbous
Apr 21
Last Quarter
Apr 28
New
May 6
First Quarter
May 14
Full

Hourly Weather History & Observations

Time (AKDT) Temp. Windchill Dew Point Humidity Pressure Visibility Wind Dir Wind Speed Gust Speed Precip Events Conditions
12:16 AM 30.2 °F - 26.6 °F 86% 29.61 in 10.0 mi Calm Calm - N/A   Clear
12:36 AM 30.2 °F - 26.6 °F 86% 29.60 in 10.0 mi Calm Calm - N/A   Clear
12:56 AM 30.2 °F - 26.6 °F 86% 29.60 in 10.0 mi Calm Calm - N/A   Clear
1:16 AM 30.2 °F - 26.6 °F 86% 29.60 in 10.0 mi Calm Calm - N/A   Scattered Clouds
1:36 AM 30.2 °F - 26.6 °F 86% 29.60 in 10.0 mi Calm Calm - N/A   Mostly Cloudy
1:56 AM 30.2 °F - 26.6 °F 86% 29.60 in 10.0 mi Calm Calm - N/A   Mostly Cloudy
2:16 AM 30.2 °F - 26.6 °F 86% 29.60 in 10.0 mi Calm Calm - N/A   Mostly Cloudy
2:36 AM 28.4 °F - 24.8 °F 86% 29.60 in 10.0 mi Calm Calm - N/A   Scattered Clouds
2:56 AM 30.2 °F - 24.8 °F 80% 29.59 in 10.0 mi Calm Calm - N/A   Clear
3:16 AM 30.2 °F - 26.6 °F 86% 29.59 in 10.0 mi Calm Calm - N/A   Clear
3:36 AM 30.2 °F - 26.6 °F 86% 29.59 in 10.0 mi Calm Calm - N/A   Clear
3:56 AM 30.2 °F - 24.8 °F 80% 29.58 in 10.0 mi Calm Calm - N/A   Clear
4:16 AM 30.2 °F - 26.6 °F 86% 29.58 in 10.0 mi Calm Calm - N/A   Clear
4:36 AM 30.2 °F - 26.6 °F 86% 29.57 in 10.0 mi Calm Calm - N/A   Clear
4:56 AM 30.2 °F - 24.8 °F 80% 29.57 in 10.0 mi Calm Calm - N/A   Clear
5:16 AM 30.2 °F - 24.8 °F 80% 29.57 in 10.0 mi Calm Calm - N/A   Clear
5:36 AM 30.2 °F - 24.8 °F 80% 29.57 in 10.0 mi Calm Calm - N/A   Clear
5:56 AM 30.2 °F 26.7 °F 24.8 °F 80% 29.57 in 10.0 mi East 3.5 mph - N/A   Clear
6:16 AM 33.8 °F 30.8 °F 26.6 °F 75% 29.56 in 10.0 mi East 3.5 mph - N/A   Clear
6:36 AM 33.8 °F 29.6 °F 26.6 °F 75% 29.56 in 10.0 mi East 4.6 mph - N/A   Clear
6:56 AM 35.6 °F 30.7 °F 28.4 °F 75% 29.56 in 10.0 mi ENE 5.8 mph - N/A   Clear
7:16 AM 35.6 °F 29.9 °F 28.4 °F 75% 29.55 in 10.0 mi NE 6.9 mph - N/A   Clear
7:36 AM 35.6 °F 30.7 °F 26.6 °F 70% 29.55 in 10.0 mi NE 5.8 mph - N/A   Clear
7:56 AM 37.4 °F 32.8 °F 26.6 °F 65% 29.55 in 10.0 mi ENE 5.8 mph - N/A   Clear
8:16 AM 37.4 °F 32.8 °F 26.6 °F 65% 29.55 in 10.0 mi ENE 5.8 mph - N/A   Clear
8:36 AM 37.4 °F 32.8 °F 26.6 °F 65% 29.54 in 10.0 mi ENE 5.8 mph - N/A   Clear
8:56 AM 37.4 °F 32.1 °F 26.6 °F 65% 29.54 in 10.0 mi ENE 6.9 mph - N/A   Clear
9:16 AM 39.2 °F 35.0 °F 26.6 °F 61% 29.54 in 10.0 mi NE 5.8 mph - N/A   Clear
9:36 AM 39.2 °F 33.0 °F 28.4 °F 65% 29.53 in 10.0 mi NE 9.2 mph - N/A   Clear
9:56 AM 39.2 °F 33.0 °F 28.4 °F 65% 29.53 in 10.0 mi NE 9.2 mph - N/A   Clear
10:16 AM 39.2 °F 33.6 °F 28.4 °F 65% 29.53 in 10.0 mi NE 8.1 mph - N/A   Clear
10:36 AM 41.0 °F 34.7 °F 28.4 °F 61% 29.52 in 10.0 mi NE 10.4 mph - N/A   Clear
10:56 AM 42.8 °F 39.3 °F 30.2 °F 61% 29.51 in 10.0 mi NE 5.8 mph - N/A   Clear
11:16 AM 44.6 °F 38.4 °F 28.4 °F 53% 29.51 in 10.0 mi NNE 12.7 mph 17.3 mph N/A   Clear
11:36 AM 44.6 °F 37.8 °F 28.4 °F 53% 29.51 in 10.0 mi NE 15.0 mph - N/A   Clear
11:56 AM 44.6 °F 39.2 °F 26.6 °F 49% 29.50 in 10.0 mi NE 10.4 mph - N/A   Clear
12:16 PM 44.6 °F 39.2 °F 28.4 °F 53% 29.50 in 10.0 mi NNE 10.4 mph 16.1 mph N/A   Clear
12:36 PM 46.4 °F 43.5 °F 28.4 °F 50% 29.50 in 10.0 mi North 5.8 mph - N/A   Clear
12:56 PM 46.4 °F 41.9 °F 28.4 °F 50% 29.49 in 10.0 mi North 9.2 mph 17.3 mph N/A   Clear
1:16 PM 46.4 °F 41.9 °F 28.4 °F 50% 29.48 in 10.0 mi North 9.2 mph - N/A   Clear
1:36 PM 46.4 °F 41.5 °F 28.4 °F 50% 29.48 in 10.0 mi NNE 10.4 mph 16.1 mph N/A   Clear
1:56 PM 48.2 °F - 28.4 °F 46% 29.47 in 10.0 mi North 9.2 mph 16.1 mph N/A   Clear
2:16 PM 48.2 °F - 28.4 °F 46% 29.47 in 10.0 mi North 9.2 mph - N/A   Clear
2:36 PM 48.2 °F - 28.4 °F 46% 29.46 in 10.0 mi NNE 8.1 mph 16.1 mph N/A   Clear
2:56 PM 48.2 °F - 28.4 °F 46% 29.46 in 10.0 mi North 9.2 mph - N/A   Clear
3:16 PM 50.0 °F - 26.6 °F 40% 29.46 in 10.0 mi NNE 13.8 mph 20.7 mph N/A   Clear
3:36 PM 51.8 °F - 26.6 °F 38% 29.45 in 10.0 mi NE 9.2 mph 20.7 mph N/A   Clear
3:56 PM 50.0 °F - 26.6 °F 40% 29.45 in 10.0 mi NNE 9.2 mph 18.4 mph N/A   Clear
4:16 PM 50.0 °F - 26.6 °F 40% 29.45 in 10.0 mi NNE 15.0 mph 18.4 mph N/A   Clear
4:36 PM 50.0 °F - 26.6 °F 40% 29.45 in 10.0 mi NNE 10.4 mph 20.7 mph N/A   Clear
4:56 PM 50.0 °F - 26.6 °F 40% 29.44 in 10.0 mi NNE 9.2 mph 19.6 mph N/A   Clear
5:16 PM 50.0 °F - 26.6 °F 40% 29.44 in 10.0 mi NNE 9.2 mph - N/A   Clear
5:36 PM 51.8 °F - 26.6 °F 38% 29.43 in 10.0 mi NNE 10.4 mph 16.1 mph N/A   Clear
5:56 PM 51.8 °F - 26.6 °F 38% 29.43 in 10.0 mi North 9.2 mph - N/A   Clear
6:16 PM 50.0 °F - 26.6 °F 40% 29.43 in 10.0 mi NNE 10.4 mph 17.3 mph N/A   Clear
6:36 PM 51.8 °F - 26.6 °F 38% 29.43 in 10.0 mi NNE 10.4 mph 16.1 mph N/A   Clear
6:56 PM 51.8 °F - 26.6 °F 38% 29.43 in 10.0 mi NNE 8.1 mph - N/A   Clear
7:16 PM 51.8 °F - 26.6 °F 38% 29.43 in 10.0 mi NNE 11.5 mph - N/A   Clear
7:36 PM 50.0 °F - 26.6 °F 40% 29.43 in 10.0 mi NNE 6.9 mph 16.1 mph N/A   Clear
7:56 PM 50.0 °F - 24.8 °F 37% 29.43 in 10.0 mi NNE 11.5 mph 16.1 mph N/A   Clear
8:16 PM 48.2 °F - 24.8 °F 40% 29.43 in 10.0 mi NNE 6.9 mph - N/A   Clear
8:36 PM 48.2 °F - 24.8 °F 40% 29.43 in 10.0 mi NNE 5.8 mph - N/A   Clear
8:56 PM 48.2 °F - 24.8 °F 40% 29.43 in 10.0 mi NNE 4.6 mph - N/A   Clear
9:16 PM 46.4 °F 43.5 °F 24.8 °F 43% 29.44 in 10.0 mi North 5.8 mph - N/A   Clear
9:36 PM 46.4 °F 44.3 °F 24.8 °F 43% 29.44 in 10.0 mi North 4.6 mph - N/A   Clear
9:56 PM 44.6 °F 42.2 °F 24.8 °F 46% 29.44 in 10.0 mi North 4.6 mph - N/A   Clear
10:16 PM 44.6 °F 43.1 °F 24.8 °F 46% 29.44 in 10.0 mi North 3.5 mph - N/A   Clear
10:36 PM 42.8 °F - 24.8 °F 49% 29.44 in 10.0 mi Calm Calm - N/A   Clear
10:56 PM 42.8 °F - 24.8 °F 49% 29.45 in 10.0 mi Calm Calm - N/A   Clear
11:16 PM 42.8 °F - 23.0 °F 46% 29.45 in 10.0 mi Calm Calm - N/A   Clear
11:36 PM 41.0 °F - 23.0 °F 49% 29.46 in 10.0 mi Calm Calm - N/A   Clear
11:56 PM 37.4 °F - 21.2 °F 52% 29.46 in 10.0 mi Calm Calm - N/A   Clear